Meteo Giornale » Osservazioni meteo Francia » Parigi-Orly

ore: 14:00 - Osservazioni Meteo Parigi-Orly
Lat. 48° 44' N Lon. 2° 24' E Alt. 89 metri s.l.m.

sereno Europe/Paris

25 °C

Sereno

Temp. 24 Ore

15 °C

25 °C

Est/Nord-Est

20.3 Km/h

Dew point 12 °C

Umidità 44 %

Visibilità  10 Km

Il sole sorge alle ore 05:55

Il sole tramonta alle ore 21:39

Data e Ora Cielo e Fenomeni T °C DP °C Um. % Pres. hPa Vis. km Vento km/h
Oggi h: 14:00 sereno Sereno 25 12 44 1021 10 E/NE 20.3
Oggi h: 13:30 sereno Sereno 24 11 43 1022 10 NE 18.5
Oggi h: 13:00 sereno Sereno 24 12 47 1022 10 NE 18.5
Oggi h: 12:30 sereno Sereno 23 12 49 1022 10 E/NE 16.7
Oggi h: 12:00 sereno Sereno 23 12 49 1022 10 E/NE 14.8
Oggi h: 11:30 sereno Sereno 22 12 53 1022 10 NE 16.7
Oggi h: 11:00 sereno Sereno 22 12 53 1023 10 E/NE 14.8
Oggi h: 10:30 sereno Sereno 21 12 56 1023 10 E/NE 16.7
Oggi h: 10:00 sereno Sereno 20 13 64 1023 10 E/NE 14.8
Oggi h: 09:30 sereno Sereno 20 12 59 1023 10 NE 13
Oggi h: 09:00 sereno Sereno 19 12 63 1023 10 E/NE 11.1
Oggi h: 08:30 sereno Sereno 18 12 67 1023 10 NE 14.8
Oggi h: 08:00 sereno Sereno 17 12 72 1023 10 NE 11.1
Oggi h: 07:30 sereno Sereno 17 12 72 1023 10 NE 9.3
Oggi h: 07:00 sereno Sereno 15 11 76 1023 10 NE 11.1
Oggi h: 06:30 sereno Sereno 15 11 76 1023 10 NE 9.3
Oggi h: 06:00 sereno Sereno 15 11 76 1022 10 NE 11.1
Oggi h: 05:30 sereno Sereno 15 11 76 1023 10 E/NE 13
Oggi h: 05:00 sereno Sereno 15 11 76 1023 10 NE 13
Oggi h: 04:30 sereno Sereno 15 11 76 1023 10 NE 14.8
Oggi h: 04:00 sereno Sereno 16 11 72 1023 10 NE 11.1
Oggi h: 03:30 sereno Sereno 16 12 77 1023 10 NE 13
Oggi h: 03:00 sereno Sereno 16 12 77 1023 10 NE 13
Oggi h: 02:30 sereno Sereno 17 13 77 1023 10 NE 14.8
Oggi h: 02:00 sereno Sereno 17 13 77 1023 10 N/NE 11.1
Oggi h: 01:30 sereno Sereno 17 13 77 1024 10 N/NE 11.1
Oggi h: 01:00 sereno Sereno 17 13 77 1024 10 N/NE 9.3
Oggi h: 00:30 sereno Sereno 17 12 72 1024 10 N 3.7
Oggi h: 00:00 sereno Sereno 18 12 67 1024 10 N/NE 7.4
Ieri h: 23:30 sereno Sereno 18 12 67 1024 10 N/NE 9.3
Ieri h: 23:00 sereno Sereno 18 12 67 1024 10 NE 9.3
Ieri h: 22:30 sereno Sereno 19 12 63 1024 10 NE 11.1
Ieri h: 22:00 sereno Sereno 20 12 59 1024 10 NE 9.3
Ieri h: 21:30 sereno Sereno 20 12 59 1024 10 NE 13
Ieri h: 21:00 nuvoloso Nuvoloso 21 13 60 1024 10 NE 16.7
Ieri h: 20:30 nuvoloso Nuvoloso 21 12 56 1024 10 NE 16.7
Ieri h: 20:00 nuvoloso Nuvoloso 23 13 53 1024 10 NE 18.5
Ieri h: 19:30 nuvoloso Nuvoloso 23 13 53 1023 10 NE 14.8
Ieri h: 19:00 nuvoloso Nuvoloso 23 13 53 1024 10 NE 13
Ieri h: 18:30 nuvoloso Nuvoloso 23 13 53 1024 10 NE 13
Ieri h: 18:00 nuvoloso Nuvoloso 23 13 53 1024 10 E/NE 11.1
Ieri h: 17:30 nuvoloso Nuvoloso 24 13 50 1024 10 E/NE 11.1
Ieri h: 17:00 nuvoloso Nuvoloso 24 13 50 1024 10 N 9.3
Ieri h: 16:30 nuvoloso Nuvoloso 24 14 53 1024 10 NE 9.3
Ieri h: 16:00 nuvoloso Nuvoloso 23 13 53 1025 10 N/NE 9.3
Ieri h: 15:30 nuvoloso Nuvoloso 23 13 53 1025 10 N/NE 11.1
Ieri h: 15:00 molto_nuvoloso Molto Nuvoloso 23 13 53 1025 10 E/NE 7.4